Time,TemperatureF,DewpointF,PressureIn,WindDirection,WindDirectionDegrees,WindSpeedMPH,WindSpeedGustMPH,Humidity,HourlyPrecipIn,Conditions,Clouds,dailyrainin,SolarRadiationWatts/m^2,SoftwareType,DateUTC
2013-04-12 00:11:00,78.2,74.0,29.90,SSE,158,12.0,-999.0,88,-99.99,,,0.00,0,weatherlink.com 1.10,2013-04-12 04:11:00,
2013-04-12 00:26:00,78.2,75.0,29.90,SSE,149,7.0,-999.0,89,-99.99,,,0.00,0,weatherlink.com 1.10,2013-04-12 04:26:00,
2013-04-12 00:41:00,78.2,75.0,29.91,SSE,159,5.0,-999.0,89,-99.99,,,0.00,0,weatherlink.com 1.10,2013-04-12 04:41:00,
2013-04-12 00:57:00,78.2,75.0,29.90,SE,134,8.0,-999.0,89,-99.99,,,0.00,0,weatherlink.com 1.10,2013-04-12 04:57:00,
2013-04-12 01:11:00,78.2,74.0,29.90,South,171,8.0,-999.0,88,-99.99,,,0.00,0,weatherlink.com 1.10,2013-04-12 05:11:00,
2013-04-12 01:26:00,78.3,75.0,29.90,SSE,163,11.0,-999.0,89,-99.99,,,0.00,0,weatherlink.com 1.10,2013-04-12 05:26:00,
2013-04-12 01:41:00,78.3,75.0,29.90,SSE,155,12.0,-999.0,88,-99.99,,,0.00,0,weatherlink.com 1.10,2013-04-12 05:41:00,
2013-04-12 01:56:00,78.4,75.0,29.90,SSE,161,8.0,-999.0,88,-99.99,,,0.00,0,weatherlink.com 1.10,2013-04-12 05:56:00,
2013-04-12 02:11:00,78.3,75.0,29.90,SE,139,9.0,-999.0,89,-99.99,,,0.00,0,weatherlink.com 1.10,2013-04-12 06:11:00,
2013-04-12 02:26:00,78.2,75.0,29.90,SSE,148,17.0,-999.0,89,-99.99,,,0.00,0,weatherlink.com 1.10,2013-04-12 06:26:00,
2013-04-12 02:41:00,78.2,75.0,29.90,SSE,155,5.0,-999.0,89,-99.99,,,0.00,0,weatherlink.com 1.10,2013-04-12 06:41:00,
2013-04-12 02:56:00,78.1,75.0,29.91,SSE,151,6.0,-999.0,89,-99.99,,,0.00,0,weatherlink.com 1.10,2013-04-12 06:56:00,
2013-04-12 03:11:00,78.2,75.0,29.90,SSE,150,8.0,-999.0,89,-99.99,,,0.00,0,weatherlink.com 1.10,2013-04-12 07:11:00,
2013-04-12 03:26:00,78.2,75.0,29.91,SE,141,9.0,-999.0,89,-99.99,,,0.00,0,weatherlink.com 1.10,2013-04-12 07:26:00,
2013-04-12 03:41:00,78.2,75.0,29.91,SSE,161,9.0,-999.0,89,-99.99,,,0.00,0,weatherlink.com 1.10,2013-04-12 07:41:00,
2013-04-12 03:56:00,78.2,75.0,29.91,SSE,148,5.0,-999.0,90,-99.99,,,0.00,0,weatherlink.com 1.10,2013-04-12 07:56:00,
2013-04-12 04:11:00,78.2,75.0,29.91,SSE,152,9.0,-999.0,90,-99.99,,,0.00,0,weatherlink.com 1.10,2013-04-12 08:11:00,
2013-04-12 04:27:00,78.1,75.0,29.91,SSE,153,2.0,-999.0,90,-99.99,,,0.00,0,weatherlink.com 1.10,2013-04-12 08:27:00,
2013-04-12 04:42:00,78.1,75.0,29.91,SSE,156,4.0,-999.0,90,-99.99,,,0.00,0,weatherlink.com 1.10,2013-04-12 08:42:00,
2013-04-12 04:57:00,77.9,75.0,29.91,SSE,149,4.0,-999.0,90,-99.99,,,0.00,0,weatherlink.com 1.10,2013-04-12 08:57:00,
2013-04-12 05:12:00,77.9,75.0,29.91,SSE,150,5.0,-999.0,90,-99.99,,,0.00,0,weatherlink.com 1.10,2013-04-12 09:12:00,
2013-04-12 05:27:00,77.8,75.0,29.91,SSE,156,9.0,-999.0,90,-99.99,,,0.00,0,weatherlink.com 1.10,2013-04-12 09:27:00,
2013-04-12 05:42:00,77.8,75.0,29.91,SE,145,6.0,-999.0,90,-99.99,,,0.00,0,weatherlink.com 1.10,2013-04-12 09:42:00,
2013-04-12 05:57:00,77.9,75.0,29.91,SSE,148,6.0,-999.0,91,-99.99,,,0.00,0,weatherlink.com 1.10,2013-04-12 09:57:00,
2013-04-12 06:12:00,77.9,75.0,29.93,SSE,153,5.0,-999.0,91,-99.99,,,0.00,0,weatherlink.com 1.10,2013-04-12 10:12:00,
2013-04-12 06:27:00,77.9,75.0,29.93,SE,130,7.0,-999.0,91,-99.99,,,0.00,0,weatherlink.com 1.10,2013-04-12 10:27:00,
2013-04-12 06:42:00,77.9,75.0,29.93,SE,136,4.0,-999.0,91,-99.99,,,0.00,0,weatherlink.com 1.10,2013-04-12 10:42:00,
2013-04-12 06:57:00,78.0,75.0,29.93,SE,144,1.0,-999.0,91,-99.99,,,0.00,0,weatherlink.com 1.10,2013-04-12 10:57:00,
2013-04-12 07:12:00,78.0,75.0,29.93,SE,146,4.0,-999.0,91,-99.99,,,0.00,0,weatherlink.com 1.10,2013-04-12 11:12:00,
2013-04-12 07:27:00,78.0,76.0,29.93,SSE,153,6.0,-999.0,92,-99.99,,,0.00,25,weatherlink.com 1.10,2013-04-12 11:27:00,
2013-04-12 07:42:00,78.1,76.0,29.94,SSE,151,4.0,-999.0,92,-99.99,,,0.00,44,weatherlink.com 1.10,2013-04-12 11:42:00,
2013-04-12 08:12:00,77.3,75.0,29.95,SE,145,4.0,-999.0,91,-99.99,,,0.00,12,weatherlink.com 1.10,2013-04-12 12:12:00,
2013-04-12 08:27:00,78.1,76.0,29.95,SSE,157,4.0,-999.0,92,-99.99,,,0.00,28,weatherlink.com 1.10,2013-04-12 12:27:00,
2013-04-12 08:42:00,77.9,75.0,29.95,SSE,157,8.0,-999.0,91,-99.99,,,0.00,49,weatherlink.com 1.10,2013-04-12 12:42:00,
2013-04-12 08:57:00,78.1,75.0,29.95,SSE,148,5.0,-999.0,91,-99.99,,,0.00,49,weatherlink.com 1.10,2013-04-12 12:57:00,
2013-04-12 09:12:00,78.8,76.0,29.95,SSE,165,6.0,-999.0,91,-99.99,,,0.00,364,weatherlink.com 1.10,2013-04-12 13:12:00,
2013-04-12 09:27:00,79.4,76.0,29.95,SSE,161,5.0,-999.0,89,-99.99,,,0.00,366,weatherlink.com 1.10,2013-04-12 13:27:00,
2013-04-12 09:42:00,79.7,76.0,29.95,SSE,159,6.0,-999.0,88,-99.99,,,0.00,246,weatherlink.com 1.10,2013-04-12 13:42:00,
2013-04-12 09:57:00,79.8,76.0,29.95,SSE,162,7.0,-999.0,88,-99.99,,,0.00,123,weatherlink.com 1.10,2013-04-12 13:57:00,
2013-04-12 10:12:00,80.4,76.0,29.96,SSE,158,6.0,-999.0,87,-99.99,,,0.00,107,weatherlink.com 1.10,2013-04-12 14:12:00,
2013-04-12 10:27:00,80.8,77.0,29.96,South,172,4.0,-999.0,87,-99.99,,,0.00,100,weatherlink.com 1.10,2013-04-12 14:27:00,
2013-04-12 10:42:00,81.0,77.0,29.96,SSE,161,5.0,-999.0,86,-99.99,,,0.00,97,weatherlink.com 1.10,2013-04-12 14:42:00,
2013-04-12 10:57:00,80.8,76.0,29.96,SSE,166,6.0,-999.0,86,-99.99,,,0.00,91,weatherlink.com 1.10,2013-04-12 14:57:00,
2013-04-12 11:12:00,80.7,76.0,29.97,SSE,162,5.0,-999.0,86,-99.99,,,0.00,95,weatherlink.com 1.10,2013-04-12 15:12:00,
2013-04-12 11:27:00,81.2,77.0,29.97,South,169,2.0,-999.0,86,-99.99,,,0.00,93,weatherlink.com 1.10,2013-04-12 15:27:00,
2013-04-12 11:43:00,81.6,77.0,29.96,South,174,7.0,-999.0,85,-99.99,,,0.00,102,weatherlink.com 1.10,2013-04-12 15:43:00,
2013-04-12 11:58:00,81.1,76.0,29.96,SSE,163,8.0,-999.0,85,-99.99,,,0.00,793,weatherlink.com 1.10,2013-04-12 15:58:00,
2013-04-12 12:13:00,80.9,76.0,29.96,SSE,158,6.0,-999.0,86,-99.99,,,0.00,858,weatherlink.com 1.10,2013-04-12 16:13:00,
2013-04-12 12:28:00,81.0,77.0,29.96,South,169,4.0,-999.0,86,-99.99,,,0.00,895,weatherlink.com 1.10,2013-04-12 16:28:00,
2013-04-12 12:43:00,81.4,76.0,29.96,SSE,162,4.0,-999.0,84,-99.99,,,0.00,914,weatherlink.com 1.10,2013-04-12 16:43:00,
2013-04-12 12:58:00,81.2,76.0,29.95,SSE,159,7.0,-999.0,84,-99.99,,,0.00,928,weatherlink.com 1.10,2013-04-12 16:58:00,
2013-04-12 13:13:00,81.4,77.0,29.95,SSE,157,4.0,-999.0,85,-99.99,,,0.00,939,weatherlink.com 1.10,2013-04-12 17:13:00,
2013-04-12 13:28:00,81.9,77.0,29.95,SSE,158,0.0,-999.0,84,-99.99,,,0.00,939,weatherlink.com 1.10,2013-04-12 17:28:00,
2013-04-12 13:43:00,83.0,77.0,29.95,SSE,163,2.0,-999.0,83,-99.99,,,0.00,940,weatherlink.com 1.10,2013-04-12 17:43:00,
2013-04-12 13:58:00,82.7,78.0,29.94,SSE,152,7.0,-999.0,84,-99.99,,,0.00,933,weatherlink.com 1.10,2013-04-12 17:58:00,
2013-04-12 14:13:00,82.5,77.0,29.94,SSE,159,5.0,-999.0,83,-99.99,,,0.00,935,weatherlink.com 1.10,2013-04-12 18:13:00,
2013-04-12 15:28:00,82.4,77.0,29.92,SSE,160,6.0,-999.0,83,-99.99,,,0.00,821,weatherlink.com 1.10,2013-04-12 19:28:00,
2013-04-12 15:43:00,81.7,77.0,29.91,SSE,150,9.0,-999.0,85,-99.99,,,0.00,793,weatherlink.com 1.10,2013-04-12 19:43:00,
2013-04-12 15:58:00,81.4,77.0,29.91,SSE,165,5.0,-999.0,85,-99.99,,,0.00,752,weatherlink.com 1.10,2013-04-12 19:58:00,
2013-04-12 16:13:00,81.5,77.0,29.91,South,171,5.0,-999.0,85,-99.99,,,0.00,707,weatherlink.com 1.10,2013-04-12 20:13:00,
2013-04-12 16:28:00,81.8,77.0,29.90,SSE,162,6.0,-999.0,84,-99.99,,,0.00,649,weatherlink.com 1.10,2013-04-12 20:28:00,
2013-04-12 16:43:00,81.8,77.0,29.90,SSE,157,5.0,-999.0,84,-99.99,,,0.00,591,weatherlink.com 1.10,2013-04-12 20:43:00,
2013-04-12 16:58:00,81.8,77.0,29.89,South,170,7.0,-999.0,84,-99.99,,,0.00,522,weatherlink.com 1.10,2013-04-12 20:58:00,
2013-04-12 17:13:00,81.9,77.0,29.89,SSE,164,2.0,-999.0,84,-99.99,,,0.00,454,weatherlink.com 1.10,2013-04-12 21:13:00,
2013-04-12 17:28:00,82.0,76.0,29.90,SSE,154,2.0,-999.0,83,-99.99,,,0.00,371,weatherlink.com 1.10,2013-04-12 21:28:00,
2013-04-12 17:43:00,82.1,77.0,29.90,SSE,155,2.0,-999.0,83,-99.99,,,0.00,322,weatherlink.com 1.10,2013-04-12 21:43:00,
2013-04-12 17:58:00,82.1,77.0,29.90,SSE,150,1.0,-999.0,83,-99.99,,,0.00,320,weatherlink.com 1.10,2013-04-12 21:58:00,
2013-04-12 18:13:00,82.0,77.0,29.90,SE,137,0.0,-999.0,84,-99.99,,,0.00,294,weatherlink.com 1.10,2013-04-12 22:13:00,
2013-04-12 18:28:00,81.9,77.0,29.90,SE,137,4.0,-999.0,84,-99.99,,,0.00,230,weatherlink.com 1.10,2013-04-12 22:28:00,
2013-04-12 18:43:00,81.2,76.0,29.91,SE,138,0.0,-999.0,84,-99.99,,,0.00,79,weatherlink.com 1.10,2013-04-12 22:43:00,
2013-04-12 18:58:00,80.7,76.0,29.91,SE,136,0.0,-999.0,86,-99.99,,,0.00,60,weatherlink.com 1.10,2013-04-12 22:58:00,
2013-04-12 19:13:00,80.2,76.0,29.92,SE,136,0.0,-999.0,86,-99.99,,,0.00,23,weatherlink.com 1.10,2013-04-12 23:13:00,
2013-04-12 19:28:00,79.6,76.0,29.92,SE,136,4.0,-999.0,87,-99.99,,,0.00,16,weatherlink.com 1.10,2013-04-12 23:28:00,
2013-04-12 19:43:00,79.4,76.0,29.93,SE,136,0.0,-999.0,88,-99.99,,,0.00,5,weatherlink.com 1.10,2013-04-12 23:43:00,
2013-04-12 19:58:00,79.1,76.0,29.93,SE,136,4.0,-999.0,89,-99.99,,,0.00,0,weatherlink.com 1.10,2013-04-12 23:58:00,
2013-04-12 20:13:00,79.0,76.0,29.93,SE,134,2.0,-999.0,90,-99.99,,,0.00,0,weatherlink.com 1.10,2013-04-13 00:13:00,
2013-04-12 20:28:00,78.9,76.0,29.93,SE,135,1.0,-999.0,90,-99.99,,,0.00,0,weatherlink.com 1.10,2013-04-13 00:28:00,
2013-04-12 20:43:00,78.7,76.0,29.94,SE,134,0.0,-999.0,90,-99.99,,,0.00,0,weatherlink.com 1.10,2013-04-13 00:43:00,
2013-04-12 20:58:00,78.6,76.0,29.94,SE,134,0.0,-999.0,91,-99.99,,,0.00,0,weatherlink.com 1.10,2013-04-13 00:58:00,
2013-04-12 21:13:00,78.7,76.0,29.95,SE,132,5.0,-999.0,91,-99.99,,,0.00,0,weatherlink.com 1.10,2013-04-13 01:13:00,
2013-04-12 21:28:00,78.7,76.0,29.95,ESE,111,0.0,-999.0,91,-99.99,,,0.00,0,weatherlink.com 1.10,2013-04-13 01:28:00,
2013-04-12 21:43:00,78.9,77.0,29.95,ESE,115,4.0,-999.0,92,-99.99,,,0.00,0,weatherlink.com 1.10,2013-04-13 01:43:00,
2013-04-12 21:58:00,78.9,77.0,29.96,SSE,147,6.0,-999.0,92,-99.99,,,0.00,0,weatherlink.com 1.10,2013-04-13 01:58:00,
2013-04-12 22:13:00,78.8,76.0,29.95,SE,135,5.0,-999.0,92,-99.99,,,0.00,0,weatherlink.com 1.10,2013-04-13 02:13:00,
2013-04-12 22:28:00,78.8,76.0,29.96,SE,137,5.0,-999.0,92,-99.99,,,0.00,0,weatherlink.com 1.10,2013-04-13 02:28:00,
2013-04-12 22:44:00,78.7,76.0,29.96,SSE,149,5.0,-999.0,92,-99.99,,,0.00,0,weatherlink.com 1.10,2013-04-13 02:44:00,
2013-04-12 22:58:00,78.8,76.0,29.96,SE,146,5.0,-999.0,92,-99.99,,,0.00,0,weatherlink.com 1.10,2013-04-13 02:58:00,
2013-04-12 23:13:00,78.6,76.0,29.97,SSE,150,6.0,-999.0,91,-99.99,,,0.00,0,weatherlink.com 1.10,2013-04-13 03:13:00,
2013-04-12 23:28:00,78.8,76.0,29.97,SSE,153,5.0,-999.0,91,-99.99,,,0.00,0,weatherlink.com 1.10,2013-04-13 03:28:00,
2013-04-12 23:43:00,78.8,76.0,29.97,SSE,157,5.0,-999.0,91,-99.99,,,0.00,0,weatherlink.com 1.10,2013-04-13 03:43:00,
2013-04-12 23:58:00,78.6,76.0,29.97,SSE,157,2.0,-999.0,91,-99.99,,,0.00,0,weatherlink.com 1.10,2013-04-13 03:58:00,